CW4957 Weather Reports


Display with metric or nautical units.
time (UTC)temp
F
wind
direction
speed
MPH
gust
MPH
rain 1hr
in
rain 24hr
in
rain mn
in
humidity
%
barometer
mb
20260903161754 72 109 0.0 2.0 0.00 0.02 0.02 89 1012.5
20260903161305 72 109 0.0 2.0 0.00 0.02 0.02 90 1012.5
20260903160802 72 83 0.0 2.0 0.00 0.02 0.02 91 1012.6
20260903160254 72 83 0.0 1.0 0.00 0.02 0.02 93 1012.6
20260903155751 70 83 0.0 2.0 0.00 0.02 0.02 92 1012.6
20260903155249 70 82 0.0 2.0 0.00 0.02 0.02 93 1012.6
20260903154746 69 76 1.0 2.0 0.00 0.02 0.02 93 1012.6
20260903154249 69 66 1.0 2.0 0.00 0.02 0.02 94 1012.6
20260903153753 69 360 0.0 2.0 0.00 0.02 0.02 94 1012.6
20260903153255 68 360 1.0 2.0 0.00 0.02 0.02 94 1012.6
20260903152758 68 360 0.0 2.0 0.00 0.02 0.02 94 1012.6
20260903152248 68 360 0.0 2.0 0.00 0.02 0.02 95 1012.9
20260903151805 67 360 0.0 1.0 0.00 0.02 0.02 95 1012.9
20260903151304 67 360 0.0 2.0 0.00 0.02 0.02 95 1012.9
20260903150807 67 360 0.0 2.0 0.00 0.02 0.02 95 1013.0
20260903150254 67 360 0.0 4.0 0.00 0.02 0.02 95 1013.0
20260903145753 67 360 1.0 4.0 0.00 0.02 0.02 95 1013.0
20260903145306 66 360 0.0 3.0 0.00 0.02 0.02 95 1013.1
20260903144825 66 300 1.0 3.0 0.00 0.02 0.02 95 1013.1
20260903144303 66 360 0.0 2.0 0.00 0.02 0.02 95 1013.1
20260903143800 66 311 0.0 1.0 0.00 0.02 0.02 95 1013.1
20260903143300 65 311 0.0 2.0 0.00 0.02 0.02 95 1013.1
20260903142801 65 311 0.0 2.0 0.00 0.02 0.02 95 1013.1
20260903142320 65 306 0.0 0.0 0.00 0.02 0.02 95 1013.3
20260903141755 65 299 0.0 0.0 0.00 0.02 0.02 95 1013.3
20260903141256 65 299 0.0 0.0 0.00 0.02 0.02 95 1013.3
20260903140755 65 300 0.0 0.0 0.00 0.02 0.02 95 1013.4
20260903140250 65 300 0.0 0.0 0.00 0.02 0.02 95 1013.4
20260903135751 64 300 0.0 0.0 0.00 0.02 0.02 95 1013.4
20260903135253 64 300 0.0 0.0 0.00 0.02 0.02 95 1013.2
20260903134756 64 300 0.0 1.0 0.00 0.02 0.02 95 1013.2
20260903134259 64 300 0.0 1.0 0.00 0.02 0.02 95 1013.2
20260903133822 64 300 0.0 0.0 0.00 0.02 0.02 95 1013.6
20260903133303 64 300 0.0 0.0 0.00 0.02 0.02 95 1013.6
20260903132816 64 300 0.0 0.0 0.00 0.02 0.02 95 1013.6
20260903132313 63 300 0.0 0.0 0.00 0.02 0.02 95 1013.7
20260903131752 63 300 0.0 0.0 0.00 0.02 0.02 95 1013.7
20260903131253 63 298 0.0 0.0 0.00 0.02 0.02 95 1013.7
20260903130752 63 298 0.0 0.0 0.00 0.02 0.02 95 1013.7
20260903130248 63 298 0.0 0.0 0.00 0.02 0.02 95 1013.7
20260903125751 63 298 0.0 0.0 0.00 0.02 0.02 95 1013.7
20260903125251 63 298 0.0 0.0 0.00 0.02 0.02 95 1014.0
20260903124751 63 298 0.0 0.0 0.00 0.02 0.02 95 1014.0
20260903124255 63 298 0.0 0.0 0.00 0.02 0.02 95 1014.0
20260903123755 63 298 0.0 0.0 0.00 0.02 0.02 95 1014.1
20260903123255 63 298 0.0 0.0 0.00 0.02 0.02 95 1014.1
20260903122818 63 298 0.0 0.0 0.00 0.02 0.02 94 1014.1
20260903122255 63 298 0.0 0.0 0.00 0.02 0.02 94 1014.2
20260903121756 63 298 0.0 0.0 0.00 0.02 0.02 94 1014.2
20260903121254 63 298 0.0 0.0 0.00 0.02 0.02 94 1014.2
20260903120806 63 298 0.0 0.0 0.00 0.02 0.02 94 1014.1
20260903120301 63 298 0.0 0.0 0.00 0.02 0.02 94 1014.1
20260903115803 63 298 0.0 0.0 0.00 0.02 0.02 94 1014.1
20260903115305 63 298 0.0 0.0 0.00 0.02 0.02 94 1014.4
20260903114827 63 298 0.0 0.0 0.00 0.02 0.02 94 1014.4
20260903114305 63 298 0.0 0.0 0.00 0.02 0.02 94 1014.4
20260903113805 63 298 0.0 0.0 0.00 0.02 0.02 94 1014.1
20260903113304 63 298 0.0 0.0 0.00 0.02 0.02 94 1014.1
20260903112801 63 298 0.0 0.0 0.00 0.02 0.02 94 1014.1
20260903112305 63 298 0.0 0.0 0.00 0.02 0.02 94 1014.4
20260903111805 62 298 0.0 0.0 0.00 0.02 0.02 94 1014.4
20260903111251 62 298 0.0 0.0 0.00 0.02 0.02 93 1014.4
20260903110754 62 298 0.0 0.0 0.00 0.02 0.02 93 1014.4
20260903110248 62 298 0.0 0.0 0.00 0.02 0.02 93 1014.4
20260903105800 62 298 0.0 0.0 0.00 0.02 0.02 93 1014.4
20260903105300 62 298 0.0 0.0 0.00 0.02 0.02 93 1014.2
20260903104802 62 298 0.0 0.0 0.00 0.02 0.02 93 1014.2
20260903104250 62 298 0.0 0.0 0.00 0.02 0.02 93 1014.2
20260903103754 62 298 0.0 0.0 0.00 0.02 0.02 93 1014.2
20260903103254 62 298 0.0 0.0 0.00 0.02 0.02 93 1014.2
20260903102755 62 298 0.0 0.0 0.00 0.02 0.02 93 1014.2
20260903102255 62 298 0.0 0.0 0.00 0.02 0.02 93 1014.1
20260903101805 62 298 0.0 0.0 0.00 0.02 0.02 93 1014.1
20260903101303 62 298 0.0 0.0 0.00 0.02 0.02 93 1014.1
20260903100807 62 298 0.0 0.0 0.00 0.02 0.02 93 1014.1
20260903100302 62 298 0.0 0.0 0.00 0.02 0.02 93 1014.1
20260903095804 62 298 0.0 0.0 0.01 0.02 0.02 93 1014.1
20260903095258 62 298 0.0 0.0 0.01 0.02 0.02 93 1014.1
20260903094755 63 298 0.0 0.0 0.01 0.02 0.02 93 1014.1
20260903094250 63 298 0.0 0.0 0.01 0.02 0.02 92 1014.1
20260903093756 63 298 0.0 0.0 0.01 0.02 0.02 92 1014.4
20260903093304 63 298 0.0 0.0 0.01 0.02 0.02 92 1014.4
20260903092823 63 298 0.0 0.0 0.01 0.02 0.02 92 1014.4
20260903092326 63 298 0.0 0.0 0.01 0.02 0.02 92 1014.2
20260903091802 63 298 0.0 0.0 0.01 0.02 0.02 92 1014.2
20260903091301 63 298 0.0 0.0 0.01 0.02 0.02 92 1014.2
20260903090800 63 298 0.0 0.0 0.01 0.02 0.02 92 1014.6
20260903090313 63 298 0.0 0.0 0.01 0.02 0.02 91 1014.6
20260903085748 63 298 0.0 0.0 0.00 0.01 0.01 91 1014.6
20260903085247 63 298 0.0 0.0 0.00 0.01 0.01 91 1014.8
20260903084810 63 298 0.0 0.0 0.00 0.01 0.01 91 1014.8
20260903084247 63 298 0.0 0.0 0.00 0.01 0.01 91 1014.8
20260903083806 63 298 0.0 0.0 0.00 0.01 0.01 91 1014.8
20260903083321 63 298 0.0 0.0 0.00 0.01 0.01 91 1014.8
20260903082802 63 298 0.0 0.0 0.00 0.01 0.01 91 1014.8
20260903082307 63 298 0.0 0.0 0.00 0.01 0.01 91 1014.8
20260903081749 63 298 0.0 0.0 0.00 0.01 0.01 91 1014.8
20260903081254 63 298 0.0 0.0 0.00 0.01 0.01 91 1014.8
20260903080750 63 298 0.0 0.0 0.00 0.01 0.01 90 1014.8
20260903080307 63 298 0.0 0.0 0.01 0.01 0.01 90 1014.8
20260903075805 63 298 0.0 0.0 0.01 0.01 0.01 90 1014.8
20260903075306 63 298 0.0 0.0 0.01 0.01 0.01 90 1014.9
20260903074749 63 298 0.0 0.0 0.01 0.01 0.01 90 1014.9
20260903074301 63 298 0.0 0.0 0.01 0.01 0.01 90 1014.9
20260903073749 63 298 0.0 2.0 0.01 0.01 0.01 90 1015.0
20260903073306 63 298 0.0 2.0 0.01 0.01 0.01 90 1015.0
20260903072826 63 298 0.0 1.0 0.01 0.01 0.01 90 1015.0
20260903072307 63 298 0.0 2.0 0.01 0.01 0.01 90 1015.3
20260903071747 63 298 0.0 2.0 0.01 0.01 0.01 90 1015.3
20260903071251 63 298 0.0 1.0 0.01 0.01 0.01 90 1015.3
20260903070747 63 298 0.0 0.0 0.01 0.01 0.01 89 1015.3
20260903070305 63 298 0.0 0.0 0.00 0.00 0.00 89 1015.3
20260903065802 63 298 0.0 0.0 0.00 0.00 0.00 89 1015.3
20260903065305 64 298 0.0 1.0 0.00 0.00 0.00 88 1014.1
20260903064745 64 313 0.0 3.0 0.00 0.00 0.00 88 1014.1
20260903064327 64 313 1.0 5.0 0.00 0.00 0.00 88 1014.1
20260903063749 64 135 3.0 4.0 0.00 0.00 0.00 88 1015.3
20260903063250 64 43 0.0 0.0 0.00 0.00 0.00 87 1015.3
20260903062805 64 43 0.0 0.0 0.00 0.00 0.00 87 1015.3
20260903062306 64 43 0.0 0.0 0.00 0.00 0.00 87 1015.2
20260903061804 64 42 0.0 0.0 0.00 0.00 0.00 86 1015.2
20260903061307 64 43 0.0 0.0 0.00 0.00 0.00 86 1015.2
20260903060750 65 43 0.0 0.0 0.00 0.00 0.00 85 1015.9
20260903060301 65 43 0.0 0.0 0.00 0.00 0.00 85 1015.9
20260903055759 65 42 0.0 0.0 0.00 0.00 0.00 85 1015.9
20260903055256 65 43 0.0 0.0 0.00 0.00 0.00 84 1016.2
20260903054819 65 319 0.0 0.0 0.00 0.00 0.00 84 1016.2
20260903054258 65 31 0.0 0.0 0.00 0.00 0.00 83 1016.2
20260903053754 65 31 0.0 0.0 0.00 0.00 0.00 83 1016.6
20260903053253 65 31 0.0 0.0 0.00 0.00 0.00 83 1016.6
20260903052758 65 28 0.0 0.0 0.00 0.00 0.00 82 1016.6
20260903052259 65 28 0.0 0.0 0.00 0.00 0.00 82 1016.7
20260903051758 65 28 0.0 0.0 0.00 0.00 0.00 81 1016.7
20260903051248 65 9 0.0 0.0 0.00 0.00 0.00 81 1016.7
20260903050753 65 14 0.0 0.0 0.00 0.00 0.00 81 1016.7
20260903050245 65 14 0.0 0.0 0.00 0.00 0.00 81 1016.7
20260903045806 65 14 0.0 0.0 0.00 0.00 0.00 80 1016.7
20260903045249 65 14 0.0 0.0 0.00 0.00 0.00 80 1016.7
20260903044752 66 14 0.0 0.0 0.00 0.00 0.00 79 1016.7
20260903044255 66 14 0.0 0.0 0.00 0.00 0.00 80 1016.7
20260903043825 66 14 0.0 1.0 0.00 0.00 0.00 79 1016.7
20260903043306 66 14 0.0 2.0 0.00 0.00 0.00 79 1016.7
20260903042748 66 14 0.0 3.0 0.00 0.00 0.00 79 1016.7
20260903042253 66 313 0.0 1.0 0.00 0.00 0.00 79 1016.9
20260903041756 66 313 0.0 1.0 0.00 0.00 0.00 79 1016.9
20260903041305 66 313 0.0 3.0 0.00 0.00 0.00 79 1016.9
20260903040825 66 308 0.0 3.0 0.00 0.00 0.00 78 1017.2
20260903040252 66 308 0.0 2.0 0.00 0.00 0.00 79 1017.2
20260903035747 66 307 0.0 0.0 0.00 0.00 0.00 78 1017.2
20260903035306 66 307 0.0 0.0 0.00 0.00 0.00 79 1016.9
20260903034749 66 307 0.0 0.0 0.00 0.00 0.00 79 1016.9
20260903034251 66 308 0.0 0.0 0.00 0.00 0.00 79 1016.9
20260903033749 66 308 0.0 0.0 0.00 0.00 0.00 80 1016.9
20260903033324 66 308 0.0 2.0 0.00 0.00 0.00 80 1016.9
20260903032816 66 308 1.0 2.0 0.00 0.00 0.00 80 1016.9
20260903032253 66 308 0.0 1.0 0.00 0.00 0.00 81 1017.1
20260903031752 66 308 0.0 0.0 0.00 0.00 0.00 81 1017.1
20260903031251 66 308 0.0 0.0 0.00 0.00 0.00 81 1017.1
20260903030754 66 308 0.0 0.0 0.00 0.00 0.00 81 1017.2
20260903030249 66 308 0.0 0.0 0.00 0.00 0.00 81 1017.2
20260903025827 66 308 0.0 1.0 0.00 0.00 0.00 80 1017.2
20260903025327 66 308 0.0 1.0 0.00 0.00 0.00 80 1017.3
20260903024808 66 308 0.0 2.0 0.00 0.00 0.00 80 1017.3
20260903024256 66 308 1.0 2.0 0.00 0.00 0.00 80 1017.3
20260903023757 66 308 0.0 1.0 0.00 0.00 0.00 81 1017.7
20260903023255 66 308 0.0 1.0 0.00 0.00 0.00 81 1017.7
20260903022755 66 308 0.0 2.0 0.00 0.00 0.00 80 1017.7
20260903022257 67 307 0.0 2.0 0.00 0.00 0.00 81 1017.8
20260903021757 67 290 0.0 0.0 0.00 0.00 0.00 82 1017.8
20260903021253 67 290 0.0 1.0 0.00 0.00 0.00 82 1017.8
20260903020755 67 290 0.0 0.0 0.00 0.00 0.00 81 1018.3
20260903020306 67 290 0.0 0.0 0.00 0.00 0.00 81 1018.3
20260903015748 67 290 0.0 0.0 0.00 0.00 0.00 81 1018.3
20260903015250 67 290 0.0 0.0 0.00 0.00 0.00 81 1018.2
20260903014751 67 290 0.0 0.0 0.00 0.00 0.00 80 1018.2
20260903014250 67 290 0.0 1.0 0.00 0.00 0.00 81 1018.2
20260903013807 67 290 0.0 0.0 0.00 0.00 0.00 81 1018.2
20260903013303 67 290 0.0 0.0 0.00 0.00 0.00 81 1018.2
20260903012759 67 290 0.0 2.0 0.00 0.00 0.00 80 1018.2
20260903012318 67 290 0.0 2.0 0.00 0.00 0.00 80 1018.1
20260903011758 67 309 0.0 1.0 0.00 0.00 0.00 81 1018.1
20260903011257 67 309 0.0 1.0 0.00 0.00 0.00 81 1018.1
20260903010811 67 309 0.0 1.0 0.00 0.00 0.00 82 1018.2
20260903010321 67 309 0.0 1.0 0.00 0.00 0.00 82 1018.2
20260903005800 67 309 0.0 3.0 0.00 0.00 0.00 83 1018.2
20260903005306 67 309 1.0 3.0 0.00 0.00 0.00 83 1017.3
20260903004828 67 24 0.0 3.0 0.00 0.00 0.00 84 1017.3
20260903004246 68 346 0.0 3.0 0.00 0.00 0.00 85 1017.3
20260903003750 68 225 0.0 1.0 0.00 0.00 0.00 86 1017.4
20260903003253 68 225 0.0 1.0 0.00 0.00 0.00 86 1017.4
20260903002754 68 225 0.0 0.0 0.00 0.00 0.00 87 1017.4
20260903002308 68 225 0.0 0.0 0.00 0.00 0.00 87 1017.7
20260903001750 68 225 0.0 0.0 0.00 0.00 0.00 87 1017.7
20260903001249 68 225 0.0 0.0 0.00 0.00 0.00 87 1017.7
20260903000748 69 225 0.0 0.0 0.00 0.00 0.00 87 1017.7
20260903000310 69 225 0.0 1.0 0.00 0.00 0.00 88 1017.7
20260902235748 69 225 0.0 1.0 0.00 0.00 0.00 88 1017.7
20260902235251 69 225 0.0 0.0 0.00 0.00 0.00 88 1017.8
20260902234808 69 225 0.0 0.0 0.00 0.00 0.00 88 1017.8
20260902234324 69 225 0.0 0.0 0.00 0.00 0.00 87 1017.8
20260902233801 69 225 0.0 0.0 0.00 0.00 0.00 87 1017.8
20260902233324 69 225 0.0 0.0 0.00 0.00 0.00 87 1017.8
20260902232804 69 225 0.0 0.0 0.00 0.00 0.00 87 1017.8
20260902232306 69 225 0.0 0.0 0.00 0.00 0.00 87 1018.3
20260902231803 70 225 0.0 0.0 0.00 0.00 0.00 87 1018.3
20260902231302 70 225 0.0 0.0 0.00 0.00 0.00 87 1018.3
20260902230805 70 225 0.0 0.0 0.00 0.00 0.00 87 1018.7
20260902230257 70 225 0.0 0.0 0.00 0.00 0.00 86 1018.7
20260902225755 70 225 0.0 0.0 0.00 0.00 0.00 86 1018.7
20260902225249 70 225 0.0 0.0 0.00 0.00 0.00 85 1019.1
20260902224748 70 225 0.0 0.0 0.00 0.00 0.00 85 1019.1
20260902224312 70 225 0.0 0.0 0.00 0.00 0.00 84 1019.1
20260902223809 70 225 0.0 0.0 0.00 0.00 0.00 84 1018.9
20260902223248 70 225 0.0 0.0 0.00 0.00 0.00 84 1018.9
20260902222815 70 225 0.0 0.0 0.00 0.00 0.00 84 1018.9
20260902222255 70 225 0.0 0.0 0.00 0.00 0.00 84 1019.0
20260902221813 70 225 0.0 0.0 0.00 0.00 0.00 84 1019.0
20260902221251 70 225 0.0 0.0 0.00 0.00 0.00 84 1019.0
20260902220751 70 225 0.0 0.0 0.00 0.00 0.00 84 1019.0
20260902220250 70 225 0.0 0.0 0.00 0.00 0.00 84 1019.0
20260902215814 70 225 0.0 0.0 0.00 0.00 0.00 83 1019.0
20260902215316 70 225 0.0 0.0 0.00 0.00 0.00 83 1018.9
20260902214757 70 225 0.0 0.0 0.00 0.00 0.00 83 1018.9
20260902214258 70 225 0.0 0.0 0.00 0.00 0.00 83 1018.9
20260902213802 70 225 0.0 0.0 0.00 0.00 0.00 82 1018.9
20260902213303 71 225 0.0 0.0 0.00 0.00 0.00 82 1018.9
20260902212827 71 225 0.0 0.0 0.00 0.00 0.00 82 1018.9
20260902212324 71 225 0.0 0.0 0.00 0.00 0.00 82 1018.9
20260902211805 71 225 0.0 0.0 0.00 0.00 0.00 82 1018.9
20260902211305 71 225 0.0 0.0 0.00 0.00 0.00 81 1018.9
20260902210759 71 225 0.0 0.0 0.00 0.00 0.00 81 1019.0
20260902210250 71 225 0.0 0.0 0.00 0.00 0.00 81 1019.0
20260902205751 71 268 0.0 0.0 0.00 0.00 0.00 83 1019.0
20260902205254 71 268 0.0 0.0 0.00 0.00 0.00 83 1018.8
20260902204754 71 268 0.0 0.0 0.00 0.00 0.00 83 1018.8
20260902204256 71 268 0.0 0.0 0.00 0.00 0.00 83 1018.8
20260902203757 71 268 0.0 0.0 0.00 0.00 0.00 82 1018.8
20260902203301 71 268 0.0 0.0 0.00 0.00 0.00 82 1018.8
20260902202805 71 268 0.0 0.0 0.00 0.00 0.00 82 1018.8
20260902202306 71 268 0.0 0.0 0.00 0.00 0.00 81 1018.9
20260902201751 71 267 0.0 0.0 0.00 0.00 0.00 82 1018.9
20260902201300 71 268 0.0 0.0 0.00 0.00 0.00 82 1018.9
20260902200825 71 268 0.0 0.0 0.00 0.00 0.00 82 1019.2
20260902200253 71 268 0.0 0.0 0.00 0.00 0.00 82 1019.2
20260902195755 71 268 0.0 0.0 0.00 0.00 0.00 82 1019.2
20260902195319 71 267 0.0 0.0 0.00 0.05 0.00 82 1019.3
20260902194801 71 268 0.0 0.0 0.00 0.05 0.00 82 1019.3
20260902194302 71 267 0.0 0.0 0.00 0.05 0.00 82 1019.3
20260902193805 71 268 0.0 0.0 0.00 0.05 0.00 80 1019.3
20260902193304 71 268 0.0 0.0 0.00 0.05 0.00 80 1019.3
20260902192747 71 267 0.0 0.0 0.00 0.05 0.00 82 1019.3
20260902192248 71 267 0.0 0.0 0.00 0.05 0.00 80 1019.7
20260902191806 72 267 0.0 0.0 0.00 0.05 0.00 80 1019.7
20260902191312 72 267 0.0 0.0 0.00 0.05 0.00 78 1019.7
20260902190811 72 268 0.0 0.0 0.00 0.05 0.00 78 1019.8
20260902190250 72 267 0.0 0.0 0.00 0.05 0.00 79 1019.8
20260902185754 72 268 0.0 0.0 0.00 0.05 0.00 78 1019.8
20260902185257 71 268 0.0 0.0 0.00 0.15 0.00 77 1019.5
20260902184821 71 268 0.0 0.0 0.00 0.15 0.00 78 1019.5
20260902184247 71 268 0.0 0.0 0.00 0.15 0.00 79 1019.5
20260902183752 71 268 0.0 0.0 0.00 0.15 0.00 77 1019.6
20260902183254 71 268 0.0 0.0 0.00 0.15 0.00 78 1019.6
20260902182753 71 268 0.0 0.0 0.00 0.15 0.00 78 1019.6
20260902182259 72 268 0.0 1.0 0.00 0.15 0.00 78 1019.7
20260902181801 72 268 0.0 1.0 0.00 0.15 0.00 78 1019.7
20260902181302 72 268 0.0 0.0 0.00 0.15 0.00 79 1019.7
20260902180801 72 268 0.0 1.0 0.00 0.15 0.00 79 1019.7
20260902180254 72 268 0.0 1.0 0.00 0.15 0.00 78 1019.7
20260902175752 72 267 0.0 0.0 0.00 0.15 0.00 78 1019.7
20260902175257 72 360 0.0 0.0 0.00 0.25 0.00 78 1019.9
20260902174801 72 360 0.0 2.0 0.00 0.25 0.00 77 1019.9
20260902174325 71 267 0.0 2.0 0.00 0.25 0.00 78 1019.9
20260902173804 71 267 0.0 3.0 0.00 0.25 0.00 78 1020.0
20260902173302 71 267 1.0 3.0 0.00 0.25 0.00 80 1020.0
20260902172803 71 268 0.0 1.0 0.00 0.25 0.00 81 1020.0
20260902172308 71 268 0.0 1.0 0.00 0.25 0.00 81 1019.9
20260902171805 71 268 0.0 1.0 0.00 0.25 0.00 81 1019.9
20260902171247 71 268 0.0 1.0 0.00 0.25 0.00 82 1019.9
20260902170803 70 268 0.0 1.0 0.00 0.25 0.00 81 1019.9
20260902170250 70 268 0.0 4.0 0.00 0.25 0.00 82 1019.9
20260902165749 70 268 0.0 4.0 0.00 0.25 0.00 82 1019.9
20260902165249 70 360 0.0 1.0 0.00 0.37 0.00 84 1019.9
20260902164751 70 360 0.0 3.0 0.00 0.37 0.00 84 1019.9
20260902164253 70 360 1.0 3.0 0.00 0.37 0.00 83 1019.9
20260902163754 69 360 1.0 2.0 0.00 0.37 0.00 84 1020.3
20260902163323 69 360 0.0 2.0 0.00 0.37 0.00 84 1020.3
20260902162804 69 360 0.0 2.0 0.00 0.37 0.00 85 1020.3
20260902162307 69 360 0.0 0.0 0.00 0.37 0.00 87 1020.6